Location: Bay Ridge
(40.6340°N, 74.0146°W)
Time: 02:57:39
(UTC+00:00)

Cosmos 1980 Rocket - Pass Details

Date: 15 November 2019
Orbit: 828 x 851 km, 71.0° (Epoch: 11 December)

Event Time Altitude Azimuth Distance (km) Brightness Sun altitude
Exits shadow 08:53:48 32° 20° (NNE) 1,416 3.4 -32.0°
Maximum altitude 08:55:34 41° 60° (ENE) 1,219 3.3 -31.6°
Drops below altitude 10° 09:00:54 10° 130° (SE) 2,466 5.2 -30.6°
Sets 09:03:28 0° 137° (SE) 3,394 5.9 -30.1°
